Location: New Canada
(47.1017°N, 68.5042°W)
Time: 14:11:26
(UTC+00:00)

RS-44 - Visible Passes

Search period start: 16 April 2024 00:00
Search period end: 26 April 2024 00:00
Orbit: 1175 x 1510 km, 82.5° (Epoch: 15 April)

Date Brightness Start Highest point End Pass type
(mag) Time Alt. Az. Time Alt. Az. Time Alt. Az.
16 Apr ? 00:58:04 10° S 01:07:00 86° E 01:15:38 10° N visible
16 Apr ? 02:54:30 10° WSW 03:01:30 26° WNW 03:08:22 10° N visible
17 Apr ? 01:22:00 10° SSW 01:30:52 68° WNW 01:39:25 10° N visible
17 Apr ? 03:20:37 10° W 03:26:03 17° NW 03:31:24 10° NNW visible
17 Apr ? 23:53:10 10° SSE 00:01:27 46° E 00:09:25 10° NNE visible
18 Apr ? 01:46:25 10° SW 01:54:53 48° WNW 02:03:04 10° N visible
18 Apr ? 03:48:13 10° WNW 03:50:50 11° NW 03:53:26 10° NNW visible
19 Apr ? 00:16:17 10° S 00:25:02 67° E 00:33:27 10° NNE visible
19 Apr ? 02:11:20 10° SW 02:19:04 33° WNW 02:26:34 10° N visible
20 Apr ? 00:39:53 10° S 00:48:47 87° W 00:57:19 10° N visible
20 Apr ? 02:36:52 10° WSW 02:43:27 23° WNW 02:49:51 10° N visible
21 Apr ? 01:03:56 10° SSW 01:12:41 62° WNW 01:21:03 10° N visible
21 Apr ? 03:03:18 10° W 03:08:02 15° NW 03:12:42 10° NNW visible
21 Apr ? 09:02:29 10° NNE 09:06:04 14° NE 09:09:35 10° E visible
22 Apr ? 01:28:30 10° SW 01:36:44 43° WNW 01:44:39 10° N visible
22 Apr ? 23:58:01 10° S 00:06:48 73° E 00:15:08 10° NNE visible
23 Apr ? 01:53:35 10° WSW 02:00:58 30° WNW 02:08:06 10° N visible
24 Apr ? 00:21:45 10° SSW 00:30:35 80° W 00:38:58 10° N visible
24 Apr ? 02:19:20 10° WSW 02:25:24 20° WNW 02:31:16 10° NNW visible
25 Apr ? 00:45:56 10° SSW 00:54:31 56° WNW 01:02:40 10° N visible
25 Apr ? 02:46:09 10° WNW 02:50:02 13° NW 02:53:50 10° NNW visible
25 Apr ? 08:43:55 10° NNE 08:47:57 15° NE 08:51:53 10° E visible
